Starlink 2162

operational
NORAD ID: 47748 Int'l Des: 2021-017 Owner: SPXS Country: US Constellation: starlink
LEOCIRCULAR

Über Starlink 2162

Beschreibung wird geladen...

Live-Position

3D-Globus wird geladen...

Nächste Überflüge

Höhenverlauf

Altitude vs Time

uPlot chart will show altitude changes over time

Zweizeiliger Elementsatz

1 47748U 21017AC 26061.64547255 .00043658 00000-0 14734-2 0 9991
2 47748 53.1588 226.2179 0002512 118.5339 241.5915 15.30290239276917
Epoch: 2. März 2026 • Age: 41 hours

Aktueller Status

Höhe 476.1 km
Geschwindigkeit 7.63 km/s
Subsatellitenpunkt 29.33°N, 166.39°W
Startdatum 4. März 2021
Alter 4.9 years
Typ internet

Technische Details

Klassifizierung Payload
Masse 260.00 kg
Trockenmasse 248.00 kg
Gesamtmasse 260.00 kg
Länge 0.20 m
Durchmesser 2.80 m
Spannweite 9.00 m
Form Box + pan
Hersteller SPXS
Bus-Typ Starlink
Phasenstatus In Orbit
Besitzer/Staat SPXS/US

Große Konstellationen

Loading constellations...